EPKKEPGD

Guest
Details From EPKK - BALICE
To EPGD - LECH WALESA
Flight Number -
Tags decoded
Created
Modified
Stats Distance 265 nm / 491 km
Max Altitude 0 ft / 0 m
Waypoints 4
Social Downloads 0
Likes 0
Share VATSIM

Download

Looking for another format? Having issues loading an existing format? Contact us
Advertisement - Login to hide

Notes

Requested: EPKK N0394F310 NAVUR2J NAVUR N744 OVBOR N133 GRUDA Z95 OSLOG OSLOG1T EPGD Unmatched points: N0394F310 NAVUR2J N744 OVBOR N133 Z95 OSLOG OSLOG1T

Route

EPKK NAVUR GRUDA EPGD

ID Type Via Altitude Latitude Longitude Leg Dist Tot Dist Heading (true) Name
O EPKK APT - 0 ft / 0 m 50.07782˚ 19.78550˚ - 0 nm - BALICE
NAVUR FIX - 0 ft / 0 m 51.01306˚ 19.91111˚ 56 nm 56 nm 5° / 5° -
GRUDA FIX - 0 ft / 0 m 53.52111˚ 18.78139˚ 156 nm 212 nm 345° / 344° -
O EPGD APT - 0 ft / 0 m 54.37617˚ 18.47188˚ 52 nm 265 nm 348° / 348° LECH WALESA

Altitude Profile

Advertisement - Login to hide

Weather


0- 5 10 15 20 25 30 35+ Temperature / ° C

Clouds and Precipitation
Forecast for 2017-12-15 00:00 UTC. Updated 2 hours ago

Ground ~20,000 ft ~40,000 ft Winds

EPKK

Details ICAO EPKK (KRK)
Name BALICE
Region Poland
Timezone Europe/Warsaw (UTC+1.0)
Stats Elevation 791 ft / 241 m (AMSL)
Location 50.077821° 19.785503°
Runways 1
Magnetic Variation 5.202° E

METAR

EPKK 150030Z 29003KT CAVOK M02/M05 Q1000

Decode

TAF

TAF EPKK 142330Z 1500/1524 VRB02KT 9999 SCT050 TEMPO 1506/1512 BKN013 BECMG 1511/1513 23010KT BECMG 1518/1521 VRB02KT

Decode

Departure Runways

ID Width Length Bearing (true) Bearing (mag) Surface Threshold Offset Overrun Length
07 197 ft / 60 m 8,343 ft / 2,543 m 77.75° 72.55° Concrete 0 ft / 0 m 0 ft / 0 m
25 197 ft / 60 m 8,343 ft / 2,543 m 257.77° 252.57° Concrete 784 ft / 239 m 0 ft / 0 m

EPGD

Details ICAO EPGD (GDN)
Name LECH WALESA
Region Poland
Timezone Europe/Warsaw (UTC+1.0)
Stats Elevation 489 ft / 149 m (AMSL)
Location 54.376167° 18.471884°
Runways 1
Magnetic Variation 5.451° E

METAR

EPGD 150030Z 22010KT 9999 FEW011 BKN026 02/M01 Q0990 R11/290095

Decode

TAF

TAF TAF EPGD 142330Z 1500/1524 19010KT 9999 BKN020 PROB30 TEMPO 1500/1507 3000 -RASN BR BKN005 BKN015 BECMG 1514/1518 26005KT BKN010 PROB40 1518/1524 3000 BR BKN005

Decode

Destination Runways

ID Width Length Bearing (true) Bearing (mag) Surface Threshold Offset Overrun Length
11 148 ft / 45 m 9,158 ft / 2,791 m 112.96° 107.51° Asphalt 0 ft / 0 m 0 ft / 0 m
29 148 ft / 45 m 9,158 ft / 2,791 m 293.00° 287.55° Asphalt 0 ft / 0 m 0 ft / 0 m

Approach Navaids

Runway Type Ident Frequency Range Bearing (true) Bearing (mag) Slope Elevation
29 Localiser IGDA 110.30 MHz 18 nm / 33 km 292.96° 287.51° - 489 ft / 149 m (AMSL)
29 Glidescope IGDA 110.30 MHz 10 nm / 19 km 292.98° 287.53° 2.90° 489 ft / 149 m (AMSL)
29 DME IGDA 110.30 MHz 18 nm / 33 km - - - 492 ft / 150 m (AMSL)

Popular Alternatives